Location: Agadir Irigdalene
(31.2522°N, 8.7797°W)
Time: 15:26:00
(UTC+00:00)

CZ-4B R/B - Pass Details

Date: 01 December 2020
Orbit: 389 x 457 km, 97.6° (Epoch: 25 January)

Event Time Altitude Azimuth Distance (km) Brightness Sun altitude
Rises 18:24:55 0° 6° (N) 2,327 4.8 -11.3°
Reaches altitude 10° 18:26:54 10° 1° (N) 1,474 3.8 -11.7°
Maximum altitude 18:29:59 54° 283° (WNW) 512 2.0 -12.3°
Drops below altitude 10° 18:33:07 10° 205° (SSW) 1,501 4.7 -12.9°
Sets 18:35:13 0° 201° (SSW) 2,398 5.7 -13.4°
